Location: Austin
(30.3000°N, 97.7500°W)
Time: 00:04:30
(UTC-05:00)

Cosmos 1536 Rocket - Pass Details

Date: 06 May 2026
Orbit: 598 x 625 km, 82.5° (Epoch: 13 May)

Event Time Altitude Azimuth Distance (km) Brightness Sun altitude
Rises 21:48:44 0° 2° (N) 2,863 7.4 -19.4°
Reaches altitude 10° 21:51:02 10° 9° (N) 1,961 6.4 -19.8°
Enters shadow 21:55:09 44° 80° (E) 848 3.9 -20.5°
